Home   Weather   Kleppe   Past weeks

Flag for Norway Past Weather in Kleppe, Norway — Yesterday and Last 2 Weeks

Now
45 °F

Partly sunny.


Feels Like: 42 °F
Forecast: 45 / 48 °F
Wind: 6 mph from Northwest

Location: Stavanger / Sola

Current Time: Dec 4, 2016 at 3:18:12 pm

Latest Report: Dec 4, 2016 at 2:00 pm


Visibility: 22 mi

Pressure: 30.30 "Hg

Humidity: 89%

Dew Point: 42 °F

Location of KleppeLocation

Past Weather in Kleppe — Graph

°F

Kleppe Temperature Yesterday

Maximum temperature yesterday: 44 °F (at 11:00 pm)
Minimum temperature yesterday: 25 °F (at 4:00 am)
Average temperature yesterday: 34 °F

High & Low Weather Summary for the Past Weeks

 TemperatureHumidityPressure
High51 °F (Nov 22, 3:00 pm)98% (Nov 26, 3:00 am)30.53 "Hg (Nov 26, 3:00 am)
Low25 °F (Dec 3, 4:00 am)64% (Nov 27, 2:00 pm)29.26 "Hg (Nov 20, 9:00 pm)
Average40 °F85%30.01 "Hg
* Reported Nov 19 4:00 pm — Dec 4 2:00 pm, Kleppe, Weather by CustomWeather, © 2016

Note: Actual official high and low records may vary slightly from our data, if they occured in-between our weather recording intervals... More about our weather records

Advertising

Kleppe Weather History for the Previous 24 Hours

Scroll right to see more
 ConditionsComfort  
Time TempWeatherWind HumidityBarometerVisibility
2:00 pm
Sun, Dec 4
45 °FPartly sunny.6 mph89%30.30 "Hg22 mi
1:00 pm45 °FOvercast.6 mph89%30.31 "Hg22 mi
12:00 pm45 °FOvercast.3 mph89%30.32 "Hg19 mi
11:00 am44 °FOvercast.5 mph90%30.32 "Hg17 mi
10:00 am43 °FSunny.5 mph92%30.31 "Hg14 mi
9:00 am44 °FOvercast.6 mph90%30.30 "Hg16 mi
8:00 am45 °FOvercast.6 mph90%30.29 "Hg14 mi
7:00 am45 °FOvercast.6 mph90%30.29 "Hg15 mi
6:00 am45 °FOvercast.6 mph89%30.28 "Hg16 mi
5:00 am45 °FOvercast.6 mph89%30.28 "Hg14 mi
4:00 am45 °FOvercast.6 mph90%30.28 "Hg14 mi
3:00 am45 °FPassing clouds.6 mph87%30.27 "Hg16 mi
2:00 am45 °FOvercast.6 mph86%30.27 "Hg17 mi
1:00 am45 °FOvercast.6 mph89%30.27 "Hg17 mi
12:00 am45 °FPassing clouds.6 mph89%30.27 "Hg13 mi
11:00 pm
Sat, Dec 3
44 °FPassing clouds.6 mph89%30.26 "Hg19 mi
10:00 pm44 °FPassing clouds.5 mph92%30.26 "Hg16 mi
9:00 pm40 °FPassing clouds.1 mph95%30.25 "Hg6 mi
8:00 pm41 °FPassing clouds.1 mph92%30.25 "Hg10 mi
7:00 pm44 °FOvercast.6 mph89%30.24 "Hg18 mi
6:00 pm44 °FPassing clouds.7 mph90%30.24 "Hg14 mi
5:00 pm41 °FOvercast.2 mph90%30.24 "Hg12 mi
4:00 pm44 °FOvercast.7 mph88%30.24 "Hg14 mi
3:00 pm44 °FOvercast.6 mph86%30.24 "Hg17 mi
Weather by CustomWeather, © 2016

See weather overviewHow to use our weather pages